This demonstration page uses our WeatherBlox Daily Observations layout. Learn more.

Left ArrowRight Arrow

39.92423, -83.80882

Hourly Observations for November 26, 2015

Temp ( °F °C ) Dew Point ( °F °C ) Humidity (%) Winds ( mph kmh ) Pressure ( in mb ) Visibility ( mi km ) Precip ( " mm )
12:56 am 00:56 Mostly Cloudy 47 8.3 32 0 56 56 S 7 11 30.46 1032 10 16.0934 0 0
1:56 am 01:56 Mostly Cloudy 51 10.5 37 2.7 59 59 S 12 19 30.46 1032 10 16.0934 0 0
2:56 am 02:56 Clear 50 10 36 2.2 59 59 S 9 15 30.48 1032 10 16.0934 0 0
3:56 am 03:56 Clear 47 8.3 36 2.2 66 66 SSE 8 13 30.48 1032 10 16.0934 0 0
4:56 am 04:56 Mostly Cloudy 45 7.2 36 2.2 71 71 SE 6 9 30.5 1033 10 16.0934 0 0
5:56 am 05:56 Partly Cloudy 46 7.7 35 1.6 66 66 SSE 8 13 30.52 1034 10 16.0934 0 0
6:56 am 06:56 Mostly Clear 46 7.7 35 1.6 66 66 S 6 9 30.53 1034 10 16.0934 0 0
7:56 am 07:56 Cloudy 47 8.3 36 2.2 66 66 SSE 7 11 30.55 1035 10 16.0934 0 0
8:56 am 08:56 Mostly Sunny 49 9.4 37 2.7 63 63 S 8 13 30.56 1035 10 16.0934 0 0
9:56 am 09:56 Mostly Sunny 55 12.7 38 3.3 53 53 S 14 22 30.55 1035 10 16.0934 0 0
10:56 am 10:56 Sunny 56 13.3 38 3.3 51 51 SSW 15 24 30.55 1035 10 16.0934 0 0
11:56 am 11:56 Partly Cloudy 60 15.5 39 3.8 46 46 SSW 16 26 30.53 1034 10 16.0934 0 0
12:56 pm 12:56 Partly Cloudy 63 17.2 42 5.5 46 46 SSW 16 26 30.51 1033 10 16.0934 0 0
1:56 pm 13:56 Mostly Cloudy 62 16.6 43 6.1 50 50 SSW 15 24 30.48 1032 10 16.0934 0 0
2:56 pm 14:56 Mostly Sunny 64 17.7 44 6.6 48 48 S 14 22 30.45 1031 10 16.0934 0 0
3:56 pm 15:56 Sunny 64 17.7 44 6.6 48 48 S 13 20 30.45 1031 10 16.0934 0 0
4:56 pm 16:56 Sunny 62 16.6 44 6.6 52 52 S 7 11 30.45 1031 10 16.0934 0 0
5:56 pm 17:56 Clear 58 14.4 43 6.1 58 58 S 7 11 30.45 1031 10 16.0934 0 0
6:56 pm 18:56 Clear 55 12.7 43 6.1 64 64 SSE 7 11 30.45 1031 10 16.0934 0 0
7:56 pm 19:56 Clear 55 12.7 42 5.5 62 62 S 9 15 30.45 1031 10 16.0934 0 0
8:56 pm 20:56 Clear 57 13.8 42 5.5 58 58 S 8 13 30.44 1031 10 16.0934 0 0
9:56 pm 21:56 Clear 56 13.3 42 5.5 59 59 S 9 15 30.44 1031 10 16.0934 0 0
10:56 pm 22:56 Clear 55 12.7 42 5.5 62 62 S 9 15 30.43 1031 10 16.0934 0 0
11:56 pm 23:56 Clear 53 11.6 41 5 64 64 SSE 8 13 30.42 1030 10 16.0934 0 0

Powered by AerisWeather